[[{"header":{"parameterUnit":"m.s-1","parameterCategory":2,"la1":30.2991,"la2":30.254,"lo1":-89.0895,"lo2":-89.0444,"dy":0.0017,"dx":0.0017,"nx":28,"ny":28,"refTime":"2024-07-27T09:00:00:Z","depth":"0","parameterNumber":2,"parameterNumberName":"U-component_of_CURRENTS"},"data":[0,0,0,0,0,0,0,0,0,0,0,0,0,0,0,0,0,0,0,0,0,0,0,0,0,0,0,0,0,0,0,0,0,0,0,0,0,0,0,0,0,0,0,0,0,0,0,0,0,0,0,0,0,0,0,0,0,0,0.2283,0.2283,0,0.2276,0.2276,0.2276,0.2241,0.224,0.224,0.2239,0.2198,0.2198,0.2197,0,0,0,0,0,0,0,0,0,0,0,0,0,0.2226,0.2227,0.2283,0.2283,0.2283,0.2276,0.2276,0.2276,0.2241,0.224,0.224,0.2239,0.2199,0.2198,0.2197,0,0,0,0,0,0,0,0,0,0,0,0,0,0.2235,0.2227,0.2283,0.2267,0.2266,0.2276,0.2276,0.2276,0.2241,0.224,0.224,0.2239,0.2199,0.2198,0.2197,0.2209,0,0,0.2195,0.2194,0,0,0,0,0,0,0,0,0.2235,0.2237,0.2269,0.2268,0.2267,0.2261,0.2241,0.2253,0.2242,0.2248,0.2239,0.2238,0.2219,0.2216,0.2213,0.2207,0.2205,0.2194,0.2194,0.2194,0.2193,0,0,0,0,0,0,0,0.2234,0.2237,0.2277,0.227,0.2268,0.2247,0.2248,0.2243,0.2235,0.2247,0.2245,0.2249,0.2217,0.2214,0.2212,0.2205,0.2195,0.2194,0.2193,0.2193,0.2254,0.2256,0,0,0,0,0,0,0.2244,0.2237,0.2278,0.2278,0.2252,0.2249,0.225,0.2262,0.2236,0.2232,0.225,0.2248,0.2216,0.2213,0.221,0.2247,0.2194,0.2193,0.2192,0.2252,0.2254,0.2256,0,0,0,0,0,0,0.2243,0.2248,0.2278,0.2258,0.2261,0.2252,0.2265,0.2262,0.2257,0.2239,0.2234,0.2248,0.2215,0.2212,0.2208,0.2244,0.2192,0.2192,0.2249,0.2252,0.2255,0.2305,0,0,0,0,0,0,0.2242,0.2248,0.226,0.226,0.2263,0.2289,0.2266,0.2263,0.2262,0.2259,0.2236,0.2231,0.2214,0.2209,0.2207,0.2242,0.2191,0.2246,0.2251,0.2254,0.2301,0.2309,0.2317,0,0,0,0,0,0.224,0.2261,0.2261,0.2266,0.228,0.229,0.229,0.2277,0.2263,0.2267,0.225,0.2232,0.2234,0.2209,0.2206,0.2242,0.2244,0.2249,0.2254,0.2297,0.2308,0.2317,0,0,0,0,0,0,0.2234,0.226,0.2259,0.2285,0.229,0.2285,0.2291,0.2281,0.2271,0.2266,0.2241,0.2236,0.2252,0.2243,0.2217,0.2277,0.2244,0.2248,0.2278,0.2288,0.2296,0.2297,0.219,0,0,0,0,0,0.2243,0.2271,0.228,0.23,0.2304,0.2297,0.23,0.2293,0.2286,0.228,0.2263,0.226,0.2273,0.2273,0.2275,0.2296,0.2326,0.2325,0.2334,0.234,0.2343,0.245,0.2468,0.2272,0.2272,0.2272,0,0,0.224,0.2265,0.2275,0.2302,0.2303,0.2303,0.2296,0.2304,0.2303,0.2278,0.227,0.228,0.2284,0.231,0.2319,0.2303,0.241,0.2346,0.2352,0.2351,0.2457,0.2476,0.2493,0.2275,0.2275,0.2274,0,0,0.2246,0.2277,0.2291,0.23,0.2315,0.2316,0.232,0.2317,0.2317,0.2316,0.2314,0.2349,0.2336,0.2369,0.2379,0.2438,0.2448,0.2441,0.2482,0.2587,0.2604,0.2619,0.267,0.2689,0.2448,0.2448,0.2448,0,0.2236,0.2261,0.2293,0.2302,0.2306,0.232,0.2315,0.2326,0.2321,0.2333,0.2317,0.2363,0.2372,0.2434,0.246,0.2458,0.2497,0.2439,0.2598,0.2614,0.2628,0.2677,0.2698,0.2451,0.2451,0.245,0.245,0,0.2239,0.2257,0.2268,0.2287,0.2297,0.2305,0.232,0.2335,0.2339,0.2349,0.24,0.2429,0.2462,0.2488,0.2485,0.2602,0.2588,0.2593,0.257,0.2651,0.2697,0.2718,0.2455,0.2454,0.2453,0.2453,0,0,0.2205,0.2258,0.2256,0.226,0.229,0.2293,0.2319,0.2346,0.2369,0.2395,0.2434,0.2498,0.2529,0.2547,0.2578,0.2674,0.2817,0.2679,0.2683,0.2723,0.3019,0.2931,0.2945,0.2855,0.2859,0.2863,0.3003,0,0.2185,0.2204,0.2236,0.2235,0.2237,0.2275,0.2292,0.2327,0.2367,0.2413,0.2488,0.2533,0.2547,0.2583,0.2684,0.2781,0.2877,0.2776,0.2939,0.2943,0.2852,0.2969,0.2873,0.2984,0.3024,0.3027,0.303,0,0.2155,0.218,0.2182,0.2214,0.2216,0.2219,0.227,0.2292,0.2381,0.2415,0.2499,0.2551,0.2684,0.269,0.2908,0.2842,0.2938,0.3014,0.3021,0.2936,0.2895,0.2914,0.302,0.2946,0.3062,0.3059,0.3057,0,0.2101,0.213,0.2137,0.2145,0.2187,0.2196,0.2217,0.2288,0.2328,0.2432,0.2485,0.2619,0.2704,0.2854,0.2987,0.2974,0.3212,0.3216,0.3223,0.3215,0.3162,0.3142,0.3212,0.3392,0.3391,0.3391,0.3391,0,0.2064,0.2062,0.2111,0.2111,0.2119,0.2152,0.2184,0.2229,0.2317,0.2376,0.2486,0.2566,0.2761,0.2901,0.3015,0.3165,0.3241,0.3252,0.3267,0.3172,0.3153,0.3105,0.3049,0.3396,0.3395,0.3394,0.3393,0,0.2001,0.2036,0.2041,0.2081,0.2094,0.2094,0.2155,0.2192,0.2275,0.2366,0.2405,0.2572,0.2742,0.2899,0.3139,0.3198,0.3262,0.3377,0.3214,0.3207,0.3125,0.3075,0.3048,0.2965,0.3432,0.3431,0.343,0,0.1976,0.1975,0.2012,0.2021,0.2038,0.2059,0.2083,0.2157,0.2208,0.236,0.2404,0.2585,0.2693,0.2963,0.311,0.3283,0.3218,0.3288,0.3257,0.3124,0.3082,0.2957,0.288,0.3211,0.3209,0.3207,0.3205,0,0.1932,0.1945,0.1962,0.1986,0.2003,0.2023,0.2063,0.2092,0.2191,0.2273,0.2383,0.2477,0.2711,0.2842,0.304,0.3142,0.3111,0.3247,0.3193,0.2983,0.2774,0.2697,0.3072,0.3186,0.3188,0.3189,0.319,0.3191,0.1912,0.1913,0.1946,0.1962,0.1975,0.1982,0.1981,0.2037,0.2096,0.2197,0.2315,0.2423,0.2624,0.2885,0.2944,0.2995,0.2984,0.2999,0.2971,0.2874,0.2718,0.3006,0.3074,0.3075,0.3076,0.3077,0.3078,0,0.1912,0.192,0.1928,0.1939,0.1926,0.1951,0.1971,0.1963,0.1996,0.211,0.2202,0.2377,0.2507,0.2655,0.2804,0.2763,0.2665,0.2706,0.2544,0.2503,0.2864,0.2776,0.2679,0.2679,0.2679,0.2679,0.2679,0.2679,0.193,0.1935,0.1935,0.1906,0.1897,0.1867,0.1863,0.1852,0.1899,0.1966,0.2051,0.217,0.2372,0.2569,0.2598,0.2551,0.2382,0.2276,0.226,0.2547,0.2573,0.2597,0.2505,0.2352,0.2352,0.1829,0.1825,0.1822]},{"header":{"parameterUnit":"m.s-1","parameterCategory":2,"la1":30.2991,"la2":30.254,"lo1":-89.0895,"lo2":-89.0444,"dy":0.0017,"dx":0.0017,"nx":28,"ny":28,"refTime":"2024-07-27T09:00:00:Z","depth":"0","parameterNumber":3,"parameterNumberName":"V-component_of_CURRENTS"},"data":[0,0,0,0,0,0,0,0,0,0,0,0,0,0,0,0,0,0,0,0,0,0,0,0,0,0,0,0,0,0,0,0,0,0,0,0,0,0,0,0,0,0,0,0,0,0,0,0,0,0,0,0,0,0,0,0,0,0,-0.0377,-0.0378,0,-0.0434,-0.0435,-0.0436,-0.0521,-0.0523,-0.0524,-0.0525,-0.0606,-0.0607,-0.0608,0,0,0,0,0,0,0,0,0,0,0,0,0,-0.0353,-0.0353,-0.0377,-0.0378,-0.0378,-0.0434,-0.0435,-0.0436,-0.0521,-0.0523,-0.0524,-0.0526,-0.0606,-0.0607,-0.0608,0,0,0,0,0,0,0,0,0,0,0,0,0,-0.0385,-0.0353,-0.0377,-0.0425,-0.043,-0.0434,-0.0435,-0.0436,-0.0521,-0.0523,-0.0525,-0.0526,-0.0606,-0.0607,-0.0609,-0.058,0,0,-0.0613,-0.0614,0,0,0,0,0,0,0,0,-0.0383,-0.0386,-0.0418,-0.0422,-0.0427,-0.047,-0.0456,-0.0485,-0.052,-0.0489,-0.0525,-0.0527,-0.056,-0.0565,-0.0575,-0.0584,-0.0587,-0.0613,-0.0614,-0.0615,-0.0615,0,0,0,0,0,0,0,-0.038,-0.0384,-0.0402,-0.0418,-0.0424,-0.0448,-0.0454,-0.0462,-0.0516,-0.0492,-0.0498,-0.0499,-0.0563,-0.0574,-0.0578,-0.0588,-0.0613,-0.0615,-0.0615,-0.0616,-0.0474,-0.047,0,0,0,0,0,0,-0.0365,-0.0381,-0.0401,-0.0404,-0.0406,-0.0446,-0.0454,-0.0457,-0.0515,-0.0525,-0.0497,-0.0503,-0.057,-0.0576,-0.0581,-0.0482,-0.0615,-0.0616,-0.0617,-0.0479,-0.0473,-0.0468,0,0,0,0,0,0,-0.0364,-0.0366,-0.0398,-0.0392,-0.0397,-0.0444,-0.0447,-0.0457,-0.0462,-0.0519,-0.053,-0.0492,-0.0572,-0.0579,-0.0562,-0.0489,-0.0617,-0.0618,-0.0484,-0.0477,-0.0471,-0.0329,0,0,0,0,0,0,-0.0363,-0.0366,-0.0357,-0.0391,-0.0397,-0.038,-0.0445,-0.0456,-0.0459,-0.0467,-0.0517,-0.0528,-0.0574,-0.0559,-0.0563,-0.0493,-0.0619,-0.049,-0.0481,-0.0473,-0.0339,-0.0318,-0.0299,0,0,0,0,0,-0.0362,-0.0337,-0.0356,-0.0358,-0.0386,-0.0378,-0.0382,-0.0425,-0.0457,-0.0441,-0.0469,-0.0526,-0.0505,-0.0557,-0.0563,-0.0492,-0.0494,-0.0484,-0.0474,-0.0348,-0.0322,-0.03,0,0,0,0,0,0,-0.0315,-0.0344,-0.0366,-0.0349,-0.0355,-0.0391,-0.0375,-0.0407,-0.0418,-0.0423,-0.0487,-0.0497,-0.0448,-0.0478,-0.0533,-0.0417,-0.05,-0.049,-0.0402,-0.0378,-0.0358,-0.0331,-0.0621,0,0,0,0,0,-0.0299,-0.0294,-0.0318,-0.0301,-0.0296,-0.0332,-0.0334,-0.0359,-0.0376,-0.0385,-0.0417,-0.0426,-0.0406,-0.0403,-0.0402,-0.035,-0.0371,-0.0296,-0.0276,-0.026,-0.0235,-0.018,-0.0154,-0.0434,-0.0434,-0.0434,0,0,-0.0274,-0.0289,-0.0285,-0.0291,-0.0299,-0.0271,-0.0338,-0.0322,-0.0298,-0.0387,-0.0356,-0.0366,-0.0375,-0.0315,-0.0293,-0.0336,-0.0194,-0.0246,-0.0233,-0.0217,-0.0167,-0.014,-0.0116,-0.0427,-0.0428,-0.0429,0,0,-0.0208,-0.023,-0.0197,-0.0195,-0.0196,-0.0214,-0.0201,-0.022,-0.0226,-0.0198,-0.0233,-0.0186,-0.0196,-0.0163,-0.0152,-0.001,-0.0092,-0.0012,0.0106,0.0159,0.0182,0.0201,0.0182,0.0199,-0.0001,-0.0001,-0.0,0,-0.0173,-0.0148,-0.0181,-0.0144,-0.0132,-0.0178,-0.013,-0.0129,-0.0142,-0.0118,-0.0166,-0.0095,-0.0107,0.0002,0.0054,0.0036,0.0015,0.0004,0.0182,0.0202,0.0219,0.0195,0.0212,0.0007,0.0007,0.0006,0.0005,0,-0.0084,-0.0063,-0.0035,-0.0013,0.0001,0.0036,0.003,0.0052,0.0035,0.0035,0.0121,0.012,0.0162,0.0187,0.0156,0.03,0.0225,0.0194,0.011,0.0255,0.0221,0.0236,0.0019,0.0016,0.0014,0.0012,0,0,-0.0003,0.0021,0.0032,0.0054,0.0069,0.0089,0.0151,0.0198,0.0246,0.0259,0.0338,0.0411,0.0401,0.0419,0.0407,0.0468,0.0569,0.039,0.0388,0.0351,0.0629,0.053,0.0535,0.0553,0.0558,0.0561,0.0543,0,0.008,0.0155,0.015,0.023,0.0267,0.0254,0.0312,0.0349,0.0365,0.0429,0.0472,0.0532,0.049,0.0516,0.0582,0.0572,0.0619,0.0573,0.0513,0.051,0.039,0.0555,0.0505,0.0482,0.0557,0.0559,0.0561,0,0.0172,0.0203,0.0285,0.0332,0.0353,0.0394,0.0467,0.0513,0.0592,0.0608,0.0684,0.0683,0.0792,0.0722,0.0796,0.0756,0.0718,0.0701,0.0699,0.0573,0.0442,0.0359,0.0505,0.0335,0.0582,0.0581,0.0579,0,0.0228,0.03,0.0359,0.0376,0.0428,0.0472,0.0505,0.0576,0.0639,0.0722,0.0779,0.0859,0.0911,0.0911,0.0861,0.0833,0.0903,0.085,0.0725,0.0712,0.0645,0.0621,0.061,0.0918,0.0918,0.0918,0.0918,0,0.0303,0.0354,0.0385,0.0418,0.0505,0.052,0.0625,0.0664,0.0758,0.0868,0.0874,0.0974,0.0966,0.0986,0.0919,0.0863,0.0943,0.0784,0.0736,0.0689,0.0671,0.0495,0.0417,0.0917,0.0917,0.0918,0.0918,0,0.035,0.037,0.0442,0.0503,0.0528,0.0586,0.0687,0.077,0.0834,0.0977,0.1013,0.109,0.1103,0.1044,0.1035,0.0937,0.0783,0.0831,0.0737,0.068,0.0394,0.0327,0.0291,0.022,0.071,0.0708,0.0706,0,0.0382,0.0419,0.0495,0.0543,0.0571,0.0655,0.0727,0.0802,0.0897,0.1057,0.1145,0.1192,0.1246,0.1151,0.098,0.0826,0.0715,0.0663,0.0631,0.0411,0.0302,0.026,0.02,0.058,0.0578,0.0575,0.0574,0,0.0446,0.0466,0.0522,0.0614,0.0689,0.0782,0.0887,0.0973,0.1088,0.1211,0.1368,0.1419,0.1298,0.1144,0.0889,0.0767,0.0527,0.0611,0.0452,0.0277,0.0171,0.0065,0.0496,0.0555,0.0557,0.0558,0.0559,0.056,0.0501,0.0549,0.0622,0.0709,0.0796,0.0914,0.1004,0.113,0.1293,0.1481,0.1512,0.1588,0.1294,0.095,0.075,0.0308,0.0376,0.0191,0.0145,0.0135,0.0037,0.0388,0.0347,0.0348,0.0348,0.0349,0.0349,0,0.0584,0.0635,0.0718,0.0831,0.093,0.0961,0.1124,0.1222,0.1414,0.1558,0.1678,0.1535,0.1163,0.0779,0.0209,-0.0088,-0.0173,-0.0248,-0.0299,-0.0323,0.0047,0.0007,-0.0191,-0.019,-0.019,-0.019,-0.019,-0.019,0.0645,0.0734,0.0767,0.0935,0.1008,0.115,0.1243,0.1385,0.1502,0.1657,0.1681,0.1679,0.1337,0.0361,-0.0337,-0.0495,-0.0671,-0.0725,-0.079,-0.0553,-0.0516,-0.048,-0.0535,-0.0843,-0.0844,-0.1145,-0.1148,-0.115]}],[{"header":{"parameterUnit":"m.s-1","parameterCategory":2,"la1":30.2991,"la2":30.254,"lo1":-89.0895,"lo2":-89.0444,"dy":0.0017,"dx":0.0017,"nx":28,"ny":28,"refTime":"2024-07-27T09:00:00:Z","depth":"2","parameterNumber":2,"parameterNumberName":"U-component_of_CURRENTS"},"data":[0,0,0,0,0,0,0,0,0,0,0,0,0,0,0,0,0,0,0,0,0,0,0,0,0,0,0,0,0,0,0,0,0,0,0,0,0,0,0,0,0,0,0,0,0,0,0,0,0,0,0,0,0,0,0,0,0,0,0.1925,0.1925,0,0.1919,0.1918,0.1918,0.1926,0.1927,0.1928,0.1928,0.1889,0.1887,0.1885,0,0,0,0,0,0,0,0,0,0,0,0,0,0.187,0.1871,0.1925,0.1925,0.1925,0.1919,0.1918,0.1918,0.1926,0.1927,0.1928,0.1929,0.1889,0.1887,0.1885,0,0,0,0,0,0,0,0,0,0,0,0,0,0.1877,0.1871,0.1925,0.1932,0.1934,0.1919,0.1918,0.1918,0.1926,0.1927,0.1928,0.1929,0.189,0.1887,0.1885,0.1845,0,0,0.1877,0.1875,0,0,0,0,0,0,0,0,0.1877,0.1879,0.1931,0.1932,0.1933,0.1929,0.1885,0.1894,0.1925,0.1923,0.1928,0.193,0.1901,0.1898,0.1887,0.1844,0.1842,0.1876,0.1875,0.1874,0.1873,0,0,0,0,0,0,0,0.1876,0.1878,0.1917,0.1931,0.1933,0.1912,0.1914,0.1886,0.1901,0.1923,0.1925,0.1933,0.1901,0.189,0.1887,0.1841,0.1876,0.1874,0.1872,0.1871,0.1895,0.1898,0,0,0,0,0,0,0.189,0.1878,0.1917,0.1917,0.1913,0.1913,0.1915,0.1925,0.1902,0.1902,0.1932,0.1933,0.1894,0.189,0.1885,0.1959,0.1874,0.1871,0.187,0.1893,0.1896,0.1898,0,0,0,0,0,0,0.1889,0.1894,0.1918,0.1902,0.1904,0.1914,0.1924,0.1924,0.1937,0.191,0.1908,0.1948,0.1895,0.1889,0.186,0.1953,0.187,0.1868,0.1891,0.1894,0.1897,0.2029,0,0,0,0,0,0,0.1887,0.1893,0.1905,0.1903,0.1906,0.1922,0.1923,0.1924,0.1941,0.1943,0.1922,0.1919,0.1895,0.1864,0.1857,0.1948,0.1865,0.1888,0.1892,0.1896,0.2022,0.2036,0.2049,0,0,0,0,0,0.1886,0.1907,0.1906,0.1911,0.1922,0.1923,0.1921,0.1928,0.1941,0.1944,0.192,0.1921,0.1889,0.186,0.1853,0.1946,0.1886,0.1891,0.1896,0.2016,0.2034,0.2049,0,0,0,0,0,0,0.1893,0.191,0.1909,0.1935,0.1932,0.1927,0.194,0.194,0.1924,0.1936,0.1905,0.1897,0.1919,0.1897,0.1868,0.1967,0.1906,0.191,0.2,0.2016,0.203,0.1998,0.1863,0,0,0,0,0,0.1898,0.1918,0.192,0.194,0.1946,0.1944,0.1948,0.1954,0.1942,0.1939,0.1928,0.1926,0.1931,0.194,0.1924,0.1951,0.1923,0.202,0.2033,0.2045,0.2015,0.2062,0.2078,0.1915,0.1915,0.1915,0,0,0.1903,0.1919,0.1927,0.1942,0.1946,0.1936,0.1949,0.197,0.1972,0.1935,0.1941,0.1953,0.1939,0.1978,0.1994,0.1976,0.2079,0.2051,0.2061,0.2024,0.2069,0.2085,0.2099,0.1918,0.1918,0.1917,0,0,0.1915,0.1942,0.1952,0.1944,0.196,0.1959,0.197,0.198,0.2001,0.2,0.1998,0.2047,0.2037,0.2067,0.2075,0.2147,0.2134,0.2183,0.2244,0.2293,0.2307,0.2318,0.2311,0.232,0.2211,0.2211,0.2211,0,0.1915,0.1924,0.1953,0.1945,0.194,0.1969,0.1959,0.1977,0.1977,0.2015,0.2019,0.2079,0.2082,0.2148,0.2187,0.2183,0.2179,0.2188,0.2311,0.2322,0.2331,0.2321,0.233,0.2218,0.2217,0.2216,0.2216,0,0.1908,0.1912,0.1922,0.1917,0.192,0.1923,0.1945,0.1979,0.2026,0.2062,0.2152,0.2167,0.2213,0.2266,0.224,0.2344,0.2308,0.2311,0.227,0.2356,0.2339,0.2346,0.2228,0.2225,0.2223,0.2221,0,0,0.1899,0.1913,0.1909,0.1901,0.1905,0.1908,0.1941,0.1991,0.2048,0.2113,0.2193,0.2263,0.2325,0.2335,0.2369,0.2426,0.2509,0.2405,0.2405,0.2395,0.2582,0.2438,0.243,0.2547,0.2548,0.255,0.2546,0,0.1874,0.1873,0.1873,0.1852,0.1856,0.1879,0.1905,0.1967,0.2053,0.2142,0.2251,0.2327,0.2341,0.24,0.2463,0.2497,0.2531,0.2506,0.2498,0.2496,0.2358,0.2435,0.2299,0.2273,0.2552,0.2553,0.2553,0,0.1841,0.1858,0.1845,0.1852,0.1854,0.1839,0.1918,0.194,0.2083,0.2165,0.2292,0.2371,0.2484,0.2477,0.2575,0.2563,0.2562,0.258,0.2581,0.2391,0.2364,0.2231,0.2274,0.2564,0.2563,0.2562,0.2562,0,0.1832,0.1821,0.1822,0.1809,0.1828,0.1839,0.1856,0.1971,0.2031,0.2189,0.2282,0.2418,0.2504,0.2551,0.2593,0.2602,0.2661,0.2684,0.2537,0.2525,0.2371,0.2342,0.2709,0.2709,0.2709,0.2709,0.2709,0,0.1792,0.1784,0.1819,0.1806,0.1829,0.1835,0.1883,0.1947,0.2058,0.2142,0.2292,0.2381,0.253,0.2596,0.2605,0.2578,0.2674,0.2528,0.2521,0.2411,0.2387,0.2601,0.2588,0.2709,0.2709,0.2709,0.2709,0,0.1759,0.1776,0.1776,0.1804,0.182,0.1831,0.1874,0.1917,0.2032,0.2144,0.2198,0.2383,0.2464,0.2549,0.2622,0.2582,0.2574,0.252,0.2346,0.2316,0.24,0.2395,0.2387,0.2382,0.2378,0.2375,0.2372,0,0.1739,0.1742,0.1777,0.1785,0.1786,0.1813,0.1834,0.1911,0.1949,0.2124,0.2162,0.2308,0.2369,0.2412,0.24,0.2373,0.2448,0.2185,0.2168,0.2376,0.2372,0.2373,0.2373,0.203,0.2025,0.202,0.2016,0,0.1707,0.172,0.1725,0.1761,0.1769,0.1778,0.1802,0.1827,0.1911,0.1997,0.2075,0.2139,0.2212,0.215,0.2118,0.2082,0.219,0.2086,0.239,0.2112,0.2034,0.203,0.2044,0.1976,0.198,0.1983,0.1985,0.1987,0.1686,0.1686,0.1704,0.1714,0.1731,0.172,0.1692,0.1708,0.1737,0.1802,0.1904,0.1934,0.1975,0.187,0.1799,0.177,0.1906,0.1842,0.186,0.1881,0.182,0.1737,0.161,0.1612,0.1613,0.1615,0.1616,0,0.1657,0.1659,0.166,0.1652,0.1615,0.1673,0.1648,0.1592,0.1559,0.1645,0.1672,0.1562,0.1519,0.1572,0.1469,0.1429,0.1464,0.1373,0.1438,0.1478,0.1513,0.1437,0.1124,0.1122,0.112,0.1119,0,0,0.1647,0.1624,0.1609,0.1536,0.1537,0.1475,0.1446,0.1382,0.139,0.1349,0.1357,0.1464,0.1537,0.1321,0.1281,0.12,0.1338,0.1155,0.1555,0.1674,0.1708,0.1787,0.1713,0,0,0,0,0]},{"header":{"parameterUnit":"m.s-1","parameterCategory":2,"la1":30.2991,"la2":30.254,"lo1":-89.0895,"lo2":-89.0444,"dy":0.0017,"dx":0.0017,"nx":28,"ny":28,"refTime":"2024-07-27T09:00:00:Z","depth":"2","parameterNumber":3,"parameterNumberName":"V-component_of_CURRENTS"},"data":[0,0,0,0,0,0,0,0,0,0,0,0,0,0,0,0,0,0,0,0,0,0,0,0,0,0,0,0,0,0,0,0,0,0,0,0,0,0,0,0,0,0,0,0,0,0,0,0,0,0,0,0,0,0,0,0,0,0,-0.0112,-0.0112,0,-0.0136,-0.0137,-0.0137,-0.0189,-0.019,-0.0191,-0.0192,-0.0267,-0.0268,-0.0269,0,0,0,0,0,0,0,0,0,0,0,0,0,-0.0113,-0.0113,-0.0112,-0.0112,-0.0112,-0.0136,-0.0137,-0.0137,-0.0189,-0.019,-0.0191,-0.0192,-0.0266,-0.0268,-0.0269,0,0,0,0,0,0,0,0,0,0,0,0,0,-0.0125,-0.0113,-0.0112,-0.0139,-0.0142,-0.0136,-0.0137,-0.0137,-0.0189,-0.019,-0.0192,-0.0193,-0.0266,-0.0268,-0.027,-0.0255,0,0,-0.0275,-0.0276,0,0,0,0,0,0,0,0,-0.0124,-0.0125,-0.0135,-0.0137,-0.014,-0.0159,-0.0164,-0.0178,-0.0189,-0.0174,-0.0192,-0.0193,-0.0233,-0.0237,-0.0242,-0.0259,-0.0262,-0.0275,-0.0276,-0.0277,-0.0278,0,0,0,0,0,0,0,-0.0123,-0.0124,-0.0124,-0.0135,-0.0138,-0.0151,-0.0154,-0.0167,-0.0199,-0.0175,-0.0178,-0.0177,-0.0235,-0.024,-0.0244,-0.0263,-0.0275,-0.0277,-0.0278,-0.0279,-0.0342,-0.0343,0,0,0,0,0,0,-0.0114,-0.0123,-0.0123,-0.0125,-0.0132,-0.0149,-0.0153,-0.0154,-0.0198,-0.0204,-0.0176,-0.0179,-0.0236,-0.0242,-0.0247,-0.0257,-0.0277,-0.0279,-0.028,-0.0342,-0.0342,-0.0343,0,0,0,0,0,0,-0.0114,-0.0113,-0.0122,-0.0123,-0.0124,-0.0148,-0.0148,-0.0153,-0.0171,-0.0197,-0.0206,-0.0189,-0.0238,-0.0245,-0.0262,-0.0259,-0.028,-0.0281,-0.0341,-0.0342,-0.0343,-0.0261,0,0,0,0,0,0,-0.0114,-0.0113,-0.0111,-0.0122,-0.0124,-0.0116,-0.0147,-0.0153,-0.0166,-0.0171,-0.021,-0.0218,-0.0239,-0.0259,-0.0264,-0.0262,-0.0283,-0.034,-0.0341,-0.0342,-0.0263,-0.0259,-0.0256,0,0,0,0,0,-0.0114,-0.0099,-0.0111,-0.0111,-0.012,-0.0115,-0.0117,-0.014,-0.0165,-0.0163,-0.0193,-0.0218,-0.0271,-0.026,-0.0266,-0.0265,-0.034,-0.0341,-0.0342,-0.0265,-0.026,-0.0256,0,0,0,0,0,0,-0.0088,-0.0103,-0.0117,-0.0106,-0.011,-0.0123,-0.0118,-0.0141,-0.0163,-0.0175,-0.021,-0.0218,-0.024,-0.0266,-0.0253,-0.0292,-0.0316,-0.0318,-0.0255,-0.0251,-0.0247,-0.02,-0.0284,0,0,0,0,0,-0.0082,-0.0083,-0.0094,-0.0083,-0.0084,-0.0105,-0.0108,-0.0127,-0.0145,-0.0157,-0.0186,-0.0223,-0.0247,-0.0258,-0.0287,-0.0292,-0.0321,-0.0304,-0.0301,-0.0297,-0.0266,-0.0304,-0.03,-0.0348,-0.0348,-0.0348,0,0,-0.0067,-0.0075,-0.0075,-0.0079,-0.0085,-0.0078,-0.0111,-0.0113,-0.0116,-0.016,-0.0177,-0.0211,-0.0249,-0.0261,-0.0274,-0.028,-0.0307,-0.0299,-0.0295,-0.0265,-0.0305,-0.03,-0.0296,-0.0348,-0.0348,-0.0348,0,0,-0.0033,-0.0045,-0.0036,-0.0036,-0.0046,-0.006,-0.0062,-0.0084,-0.0102,-0.0113,-0.0156,-0.0174,-0.0217,-0.0231,-0.0246,-0.0239,-0.0291,-0.0273,-0.0204,-0.0242,-0.0237,-0.0233,-0.0289,-0.029,-0.0265,-0.0265,-0.0264,0,-0.0015,-0.0006,-0.0028,-0.0015,-0.0011,-0.0051,-0.0036,-0.0052,-0.0081,-0.0084,-0.0113,-0.0159,-0.0194,-0.0192,-0.019,-0.0225,-0.0266,-0.021,-0.0233,-0.023,-0.0227,-0.0285,-0.0287,-0.0261,-0.0261,-0.0262,-0.0262,0,0.0028,0.0033,0.0045,0.004,0.0041,0.0049,0.0026,0.001,-0.0022,-0.0033,-0.0047,-0.0085,-0.0103,-0.0132,-0.0151,-0.0153,-0.0197,-0.0226,-0.0232,-0.0216,-0.028,-0.0284,-0.0255,-0.0257,-0.0258,-0.0259,0,0,0.0072,0.0072,0.0076,0.0082,0.0068,0.0075,0.0069,0.0066,0.0074,0.0039,0.0058,0.002,0.0006,-0.0012,-0.0052,-0.0074,-0.0102,-0.013,-0.0134,-0.0164,-0.0204,-0.0201,-0.0206,-0.0139,-0.0139,-0.0139,-0.0264,0,0.011,0.0141,0.0129,0.0158,0.017,0.014,0.0144,0.0133,0.0118,0.0125,0.0094,0.0094,0.0047,0.0044,0.0017,-0.006,-0.0106,-0.0066,-0.0232,-0.0237,-0.0218,-0.0207,-0.0174,-0.0279,-0.0268,-0.0269,-0.027,0,0.0154,0.0165,0.0197,0.0208,0.0214,0.0224,0.0229,0.0229,0.0228,0.0223,0.0227,0.02,0.019,0.013,0.0026,0.0051,-0.0065,-0.0139,-0.0147,-0.0163,-0.0239,-0.0292,-0.0287,-0.0277,-0.0277,-0.0276,-0.0276,0,0.0187,0.0214,0.0237,0.0244,0.025,0.026,0.0261,0.0262,0.0281,0.0294,0.0321,0.0289,0.0286,0.0166,0.0026,0.0021,-0.0114,-0.0152,-0.0269,-0.0273,-0.0281,-0.0284,-0.0255,-0.0255,-0.0254,-0.0254,-0.0254,0,0.0224,0.0245,0.0257,0.0273,0.0313,0.03,0.0344,0.0344,0.0368,0.0415,0.0383,0.0404,0.0296,0.0209,0.0053,-0.0103,-0.0104,-0.024,-0.029,-0.0257,-0.0256,-0.0279,-0.028,-0.0259,-0.0258,-0.0257,-0.0256,0,0.0246,0.0253,0.0289,0.0312,0.0328,0.0354,0.0402,0.0435,0.0451,0.0512,0.0525,0.0501,0.0403,0.0257,0.0064,-0.0053,-0.0225,-0.0308,-0.0261,-0.0301,-0.037,-0.0366,-0.0418,-0.0418,-0.0419,-0.0419,-0.042,0,0.0256,0.0275,0.0325,0.0357,0.0371,0.0414,0.0447,0.0474,0.0515,0.056,0.0591,0.0539,0.0495,0.0236,0.0027,-0.0221,-0.0266,-0.0355,-0.0341,-0.0335,-0.038,-0.0375,-0.0371,-0.0351,-0.0351,-0.0351,-0.035,0,0.0276,0.0294,0.0323,0.0392,0.0439,0.0502,0.0553,0.0599,0.0634,0.0677,0.0696,0.0664,0.0467,0.0265,-0.0027,-0.0195,-0.0291,-0.0357,-0.0371,-0.0295,-0.0277,-0.0319,-0.0317,-0.0349,-0.0349,-0.0349,-0.0349,-0.0349,0.0291,0.0316,0.036,0.0424,0.0493,0.0573,0.0624,0.0676,0.0737,0.0792,0.0752,0.0713,0.0512,0.016,-0.008,-0.0295,-0.0307,-0.0387,-0.0386,-0.0386,-0.0336,-0.0317,-0.039,-0.039,-0.039,-0.0391,-0.0391,0,0.0294,0.0328,0.0391,0.0467,0.0543,0.0585,0.0682,0.0728,0.0791,0.083,0.0827,0.0643,0.0419,0.0196,-0.0119,-0.0326,-0.0338,-0.0379,-0.0349,-0.0349,-0.035,-0.0297,-0.0342,-0.0342,-0.0342,-0.0342,0,0,0.0295,0.0336,0.0366,0.0484,0.0555,0.0658,0.0718,0.0787,0.0837,0.0859,0.0841,0.0763,0.0495,0.0279,0.0007,-0.0158,-0.0204,-0.0189,-0.021,-0.0144,-0.0142,-0.0341,-0.0258,0,0,0,0,0]}],[{"header":{"parameterUnit":"m.s-1","parameterCategory":2,"la1":30.2991,"la2":30.254,"lo1":-89.0895,"lo2":-89.0444,"dy":0.0017,"dx":0.0017,"nx":28,"ny":28,"refTime":"2024-07-27T09:00:00:Z","depth":"4","parameterNumber":2,"parameterNumberName":"U-component_of_CURRENTS"},"data":[0,0,0,0,0,0,0,0,0,0,0,0,0,0,0,0,0,0,0,0,0,0,0,0,0,0,0,0,0,0,0,0,0,0,0,0,0,0,0,0,0,0,0,0,0,0,0,0,0,0,0,0,0,0,0,0,0,0,0.0569,0.0571,0,0.0708,0.0709,0.0711,0.0783,0.0784,0.0784,0.0784,0.0865,0.0867,0.0869,0,0,0,0,0,0,0,0,0,0,0,0,0,0.0382,0.0384,0.0569,0.0571,0.0573,0.0708,0.071,0.0711,0.0783,0.0784,0.0784,0.0785,0.0865,0.0867,0.0869,0,0,0,0,0,0,0,0,0,0,0,0,0,0.0483,0.0385,0.0569,0.0627,0.0634,0.0708,0.071,0.0712,0.0783,0.0784,0.0784,0.0785,0.0864,0.0866,0.0869,0.0874,0,0,0.0877,0.0878,0,0,0,0,0,0,0,0,0.0477,0.0489,0.0617,0.0624,0.0632,0.0732,0.0674,0.0764,0.0783,0.0723,0.0784,0.0785,0.0817,0.0823,0.0845,0.0878,0.0881,0.0878,0.0879,0.088,0.0881,0,0,0,0,0,0,0,0.047,0.0484,0.0621,0.0619,0.0628,0.0653,0.0667,0.0691,0.0761,0.0729,0.0735,0.0755,0.082,0.0842,0.0847,0.0882,0.0877,0.088,0.0882,0.0883,0.0979,0.098,0,0,0,0,0,0,0.0458,0.0477,0.0616,0.0625,0.0558,0.0656,0.0672,0.0696,0.0763,0.0775,0.0755,0.0758,0.0837,0.0844,0.085,0.0911,0.088,0.0883,0.0884,0.0978,0.0979,0.098,0,0,0,0,0,0,0.0454,0.0469,0.0611,0.0556,0.0577,0.0659,0.0685,0.0699,0.0746,0.0784,0.0794,0.0791,0.0838,0.0846,0.09,0.0913,0.0884,0.0886,0.0977,0.0978,0.098,0.1001,0,0,0,0,0,0,0.0448,0.0467,0.0488,0.0556,0.058,0.0668,0.0686,0.0701,0.0758,0.0764,0.0818,0.0825,0.0839,0.0897,0.0903,0.0916,0.0889,0.0976,0.0978,0.0979,0.0999,0.1002,0.1006,0,0,0,0,0,0.044,0.0471,0.0488,0.0506,0.0603,0.067,0.0684,0.0741,0.0759,0.0784,0.0827,0.0824,0.0912,0.09,0.0908,0.0921,0.0975,0.0977,0.0979,0.0997,0.1002,0.1006,0,0,0,0,0,0,0.0405,0.0484,0.0503,0.0557,0.0613,0.0684,0.0723,0.0753,0.0807,0.0822,0.0846,0.0856,0.0909,0.0913,0.0899,0.0954,0.0939,0.0943,0.095,0.0955,0.0958,0.0934,0.0891,0,0,0,0,0,0.0404,0.0448,0.0517,0.0562,0.0593,0.0658,0.0696,0.0735,0.079,0.0816,0.0853,0.0887,0.092,0.0937,0.097,0.0999,0.0987,0.101,0.1014,0.1017,0.1002,0.0996,0.0997,0.0987,0.0987,0.0987,0,0,0.0408,0.0453,0.0482,0.0557,0.0609,0.0661,0.0683,0.0752,0.0789,0.0814,0.0879,0.0911,0.0934,0.0977,0.0997,0.0982,0.1018,0.102,0.1022,0.1005,0.0998,0.0999,0.0999,0.0989,0.0988,0.0988,0,0,0.0428,0.0474,0.0516,0.0565,0.0644,0.0681,0.0703,0.0783,0.0814,0.0877,0.0902,0.0934,0.0996,0.1003,0.1014,0.1052,0.1045,0.1073,0.1063,0.1058,0.1058,0.1058,0.1059,0.1058,0.1064,0.1064,0.1064,0,0.0426,0.0488,0.0538,0.0589,0.0635,0.0689,0.0742,0.0779,0.0864,0.0883,0.0903,0.0985,0.0998,0.1028,0.1039,0.1056,0.1062,0.1045,0.106,0.106,0.1059,0.106,0.1059,0.1066,0.1065,0.1065,0.1065,0,0.0472,0.053,0.0563,0.064,0.0689,0.0748,0.0804,0.0852,0.0893,0.0919,0.0975,0.1004,0.1042,0.1053,0.1057,0.1065,0.1075,0.1073,0.1044,0.1061,0.1062,0.1061,0.1067,0.1067,0.1067,0.1066,0,0,0.0444,0.057,0.0581,0.063,0.0724,0.0768,0.0828,0.0885,0.0915,0.0974,0.1004,0.1043,0.1053,0.1064,0.1077,0.1061,0.1059,0.1064,0.1063,0.1056,0.1063,0.1038,0.1034,0.107,0.107,0.1069,0.107,0,0.0465,0.0558,0.0615,0.0705,0.0763,0.083,0.0875,0.0928,0.0966,0.1003,0.1017,0.1062,0.1058,0.109,0.1068,0.1059,0.1056,0.1059,0.1055,0.1054,0.1022,0.1031,0.1068,0.1069,0.1069,0.1069,0.1069,0,0.0493,0.0547,0.0638,0.0746,0.0776,0.0831,0.091,0.096,0.1006,0.1039,0.107,0.1088,0.1083,0.1086,0.106,0.107,0.1068,0.1057,0.1058,0.1019,0.1026,0.1046,0.1066,0.1067,0.1067,0.1067,0.1067,0,0.0447,0.0569,0.0637,0.0679,0.0797,0.0847,0.0907,0.097,0.1009,0.1068,0.11,0.11,0.113,0.1098,0.108,0.1076,0.1052,0.1042,0.1024,0.1024,0.1035,0.1035,0.1037,0.1037,0.1037,0.1037,0.1037,0,0.0452,0.051,0.063,0.0664,0.0741,0.0834,0.0907,0.0967,0.1035,0.1071,0.1115,0.1141,0.1139,0.113,0.1087,0.1047,0.1062,0.1016,0.1016,0.1049,0.105,0.1036,0.1035,0.1037,0.1037,0.1037,0.1037,0,0.0421,0.0496,0.0579,0.0693,0.0732,0.0793,0.0922,0.096,0.1045,0.1096,0.1126,0.1179,0.1178,0.1166,0.1132,0.1077,0.1028,0.1029,0.1076,0.1081,0.0999,0.1,0.0974,0.0973,0.0973,0.0972,0.0971,0,0.0417,0.046,0.0579,0.062,0.0683,0.0786,0.0843,0.0956,0.0997,0.1104,0.1111,0.1172,0.1194,0.1118,0.1107,0.1048,0.1047,0.102,0.0985,0.0986,0.099,0.0992,0.0995,0.097,0.097,0.0969,0.0969,0,0.04,0.0449,0.0508,0.0584,0.0657,0.0739,0.0833,0.0858,0.0979,0.1055,0.1093,0.1103,0.1122,0.1091,0.1093,0.1036,0.1011,0.101,0.1011,0.0977,0.0981,0.0986,0.0989,0.0966,0.0967,0.0967,0.0967,0,0.0376,0.0417,0.0486,0.0558,0.063,0.0676,0.0737,0.0809,0.0871,0.0993,0.0999,0.1056,0.1122,0.1088,0.1053,0.1029,0.1,0.0944,0.0948,0.0951,0.0941,0.0941,0.0907,0,0,0,0,0,0.0353,0.0398,0.0452,0.0528,0.0589,0.0633,0.0719,0.0778,0.0885,0.0895,0.0955,0.0974,0.098,0.0997,0.0962,0.1011,0.0981,0.0963,0.0914,0.095,0.0953,0.0942,0,0,0,0,0,0,0.0348,0.0395,0.0437,0.0481,0.052,0.0586,0.0635,0.0704,0.0723,0.0829,0.0836,0.092,0.0929,0.0997,0.0947,0.0951,0.0899,0.1003,0.1,0.0948,0.0951,0.0954,0.0943,0,0,0,0,0]},{"header":{"parameterUnit":"m.s-1","parameterCategory":2,"la1":30.2991,"la2":30.254,"lo1":-89.0895,"lo2":-89.0444,"dy":0.0017,"dx":0.0017,"nx":28,"ny":28,"refTime":"2024-07-27T09:00:00:Z","depth":"4","parameterNumber":3,"parameterNumberName":"V-component_of_CURRENTS"},"data":[0,0,0,0,0,0,0,0,0,0,0,0,0,0,0,0,0,0,0,0,0,0,0,0,0,0,0,0,0,0,0,0,0,0,0,0,0,0,0,0,0,0,0,0,0,0,0,0,0,0,0,0,0,0,0,0,0,0,0.0366,0.0365,0,0.0269,0.0268,0.0267,0.026,0.0261,0.0262,0.0263,0.0197,0.0195,0.0192,0,0,0,0,0,0,0,0,0,0,0,0,0,0.0456,0.0455,0.0366,0.0365,0.0363,0.0269,0.0268,0.0266,0.026,0.0261,0.0262,0.0263,0.0198,0.0195,0.0192,0,0,0,0,0,0,0,0,0,0,0,0,0,0.0395,0.0455,0.0366,0.0348,0.0345,0.0269,0.0268,0.0266,0.0259,0.0261,0.0262,0.0264,0.0199,0.0196,0.0192,0.0138,0,0,0.0179,0.0178,0,0,0,0,0,0,0,0,0.0399,0.0392,0.0352,0.0349,0.0346,0.0277,0.0275,0.0224,0.0259,0.0293,0.0263,0.0264,0.0225,0.0219,0.0199,0.0135,0.0132,0.0179,0.0177,0.0175,0.0174,0,0,0,0,0,0,0,0.0403,0.0395,0.0329,0.035,0.0346,0.0313,0.0307,0.0265,0.0253,0.029,0.0289,0.0276,0.0224,0.0203,0.0197,0.0131,0.0179,0.0176,0.0173,0.0172,0.0002,0.0,0,0,0,0,0,0,0.0415,0.04,0.0332,0.0326,0.0375,0.0311,0.0304,0.0298,0.0253,0.0247,0.0275,0.0276,0.0209,0.0202,0.0195,0.012,0.0175,0.0171,0.0169,0.0004,0.0002,-0.0,0,0,0,0,0,0,0.0418,0.0411,0.0336,0.0359,0.0347,0.0308,0.0301,0.0296,0.0278,0.0241,0.0236,0.0264,0.0209,0.0201,0.0147,0.0119,0.017,0.0166,0.0007,0.0004,0.0001,-0.0024,0,0,0,0,0,0,0.0421,0.0412,0.0413,0.036,0.0346,0.0289,0.03,0.0293,0.0267,0.0267,0.0229,0.0225,0.021,0.0153,0.0143,0.0114,0.0163,0.001,0.0005,0.0002,-0.002,-0.0027,-0.0033,0,0,0,0,0,0.0425,0.0409,0.0414,0.0406,0.0349,0.0287,0.0277,0.0255,0.0265,0.0247,0.0218,0.0226,0.0121,0.0147,0.0136,0.0106,0.0012,0.0007,0.0002,-0.0017,-0.0026,-0.0033,0,0,0,0,0,0,0.0441,0.0405,0.041,0.0385,0.0343,0.0286,0.0263,0.0251,0.0213,0.0215,0.0195,0.0186,0.0128,0.0114,0.0144,0.0043,0.0068,0.0061,0.0057,0.0049,0.0042,0.0058,0.0159,0,0,0,0,0,0.0448,0.0434,0.039,0.037,0.035,0.031,0.0284,0.0266,0.0223,0.0209,0.0183,0.0146,0.0095,0.0074,0.0031,-0.0026,-0.0028,-0.0054,-0.0061,-0.0066,-0.0063,-0.0097,-0.0106,-0.0016,-0.0016,-0.0016,0,0,0.0456,0.0427,0.0425,0.0374,0.0342,0.0299,0.0298,0.025,0.0218,0.0205,0.0157,0.0121,0.0074,0.001,-0.0017,-0.0002,-0.0094,-0.0072,-0.0076,-0.007,-0.0103,-0.0111,-0.0119,-0.0019,-0.0019,-0.0018,0,0,0.0432,0.0431,0.0404,0.037,0.0315,0.0287,0.0276,0.0219,0.02,0.0141,0.0121,0.007,0.0002,-0.004,-0.007,-0.0141,-0.0129,-0.0156,-0.0175,-0.0209,-0.0215,-0.0221,-0.0234,-0.0241,-0.0157,-0.0157,-0.0157,0,0.0441,0.0404,0.0383,0.0336,0.0314,0.0284,0.0246,0.0208,0.0143,0.0123,0.0125,0.0012,-0.0023,-0.0106,-0.0134,-0.0154,-0.0161,-0.0137,-0.0214,-0.022,-0.0226,-0.0237,-0.0244,-0.0159,-0.0159,-0.0158,-0.0158,0,0.0384,0.0365,0.034,0.0289,0.0259,0.0218,0.0173,0.0141,0.0122,0.0088,0.0013,-0.0047,-0.0102,-0.0137,-0.016,-0.023,-0.0218,-0.0217,-0.0185,-0.0236,-0.0245,-0.0252,-0.0161,-0.0161,-0.016,-0.016,0,0,0.0376,0.0319,0.031,0.0301,0.0237,0.0208,0.0155,0.0101,0.008,0.0012,-0.0025,-0.0131,-0.0143,-0.0179,-0.0218,-0.026,-0.0312,-0.0256,-0.0256,-0.0251,-0.0371,-0.0332,-0.0335,-0.0321,-0.0322,-0.0323,-0.036,0,0.0341,0.0277,0.025,0.021,0.0184,0.0158,0.012,0.0072,0.0035,-0.0008,-0.008,-0.0132,-0.0166,-0.0189,-0.0242,-0.0292,-0.0332,-0.0301,-0.0337,-0.0338,-0.0283,-0.0343,-0.0328,-0.0365,-0.0367,-0.0368,-0.0368,0,0.0287,0.0259,0.0218,0.02,0.0187,0.0163,0.0128,0.0088,0.0019,-0.0007,-0.0072,-0.0117,-0.0203,-0.0213,-0.032,-0.0296,-0.0336,-0.0375,-0.0377,-0.0333,-0.0312,-0.0307,-0.0381,-0.038,-0.0379,-0.0378,-0.0377,0,0.0293,0.0242,0.0223,0.021,0.0172,0.0163,0.0147,0.0092,0.0073,0.0002,-0.0015,-0.0117,-0.0157,-0.0236,-0.0316,-0.0317,-0.0417,-0.0421,-0.0428,-0.0424,-0.0433,-0.0426,-0.0496,-0.0496,-0.0496,-0.0496,-0.0496,0,0.0263,0.025,0.0236,0.0224,0.0221,0.0191,0.0181,0.0147,0.0107,0.0087,-0.0,-0.004,-0.0165,-0.0238,-0.0311,-0.0384,-0.0409,-0.0439,-0.0439,-0.0444,-0.0438,-0.0437,-0.043,-0.0497,-0.0497,-0.0497,-0.0497,0,0.0259,0.0244,0.0234,0.0219,0.0223,0.0224,0.0223,0.0212,0.0175,0.0146,0.0128,0.0019,-0.0076,-0.019,-0.0314,-0.0361,-0.0441,-0.046,-0.0445,-0.0442,-0.0427,-0.0421,-0.0474,-0.0473,-0.0472,-0.0471,-0.0471,0,0.0244,0.0238,0.0246,0.0255,0.0252,0.0261,0.0266,0.0247,0.024,0.0182,0.0168,0.0069,-0.0011,-0.0152,-0.0275,-0.0403,-0.0423,-0.0453,-0.0465,-0.0434,-0.0429,-0.0424,-0.0419,-0.047,-0.0469,-0.0469,-0.0469,0,0.0223,0.0236,0.0232,0.026,0.0278,0.0299,0.031,0.0315,0.0289,0.0264,0.0207,0.0113,0.0006,-0.0132,-0.0229,-0.0327,-0.043,-0.0445,-0.0448,-0.046,-0.043,-0.0424,-0.042,-0.0466,-0.0467,-0.0467,-0.0467,0,0.0214,0.0218,0.0228,0.0255,0.0286,0.0318,0.0328,0.0327,0.0324,0.0273,0.0257,0.0129,0.0052,-0.0091,-0.0184,-0.0273,-0.03,-0.0322,-0.0332,-0.0336,-0.0288,-0.0229,-0.0212,0,0,0,0,0,0.0197,0.0203,0.0222,0.0251,0.029,0.0315,0.0341,0.0348,0.0339,0.0315,0.0292,0.0196,0.0044,-0.004,-0.012,-0.0184,-0.0325,-0.028,-0.0356,-0.0452,-0.0455,-0.042,0,0,0,0,0,0,0.018,0.0193,0.0209,0.0248,0.0277,0.032,0.0343,0.0343,0.033,0.0309,0.0226,0.0192,0.0035,0.0093,-0.0118,-0.0148,-0.0202,-0.0355,-0.0356,-0.045,-0.0453,-0.0455,-0.042,0,0,0,0,0]}]]